DIRECTV 11

Last updated on Sun Jun 21 2026 00:03:04 GMT+0000 (Coordinated Universal Time)

1 32729U 08013A 26170.94465848 -.00000131 00000+0 00000+0 0 9993 2 32729 0.0260 219.1273 0000180 197.2081 92.7255 1.00271356 45627
UTC large
Height (km)
Speed (km/s)
/
Latitude / Longitude
Inclination (degrees)
Orbital Period (minutes)
Azimuth
Elevation
Range (km)
Doppler Factor

Next 0 passes for location: London (51.5072 / 0.1276)

No passes found over London.
DIRECTV 11